RH
33 30 18 13 16 28 38 48 49 44 46 48 46 41 42 44 37 33 34 33 32 30 28 27 25 23 22 21 24 30 36 35 30 30 31 34 33 36 39 39 40 36 28 23
44 44 15 14 21 26 37 55 55 58 55 52 55 53 50 46 40 37 35 34 33 31 28 28 29 31 29 25 27 35 38 40 34 33 32 35 37 34 38 39 41 39 34 26
52 30 32 20 22 29 38 52 64 61 59 52 49 51 50 46 40 35 32 33 33 33 29 31 31 32 36 37 31 30 36 42 39 34 36 39 41 35 39 38 40 42 38 29
49 42 48 29 22 31 41 50 59 60 62 52 46 45 40 35 32 30 28 27 28 30 31 31 33 35 36 37 37 36 33 36 44 38 35 36 34 33 35 37 41 47 40 28
34 57 56 40 34 31 38 50 63 62 60 53 48 45 36 38 38 37 38 38 39 38 37 36 36 34 33 33 34 38 40 38 41 34 34 35 40 36 36 38 42 50 44 30
33 60 67 34 49 40 45 57 65 62 60 62 48 45 38 39 37 42 51 51 48 51 52 52 50 48 41 35 33 32 35 38 37 39 33 37 39 38 37 40 42 51 49 33
35 70 68 41 47 49 55 61 79 84 87 59 45 47 39 50 51 58 61 59 57 55 53 49 46 46 48 48 43 31 30 38 38 36 34 37 39 42 40 41 42 52 49 34
50 84 75 55 53 46 50 59 80 68 67 57 50 57 46 56 64 63 65 69 62 59 57 50 46 48 47 48 44 38 29 31 41 38 38 40 44 42 44 44 45 54 48 32
95 91 73 72 52 58 59 67 64 81 74 74 60 71 77 63 70 72 70 66 74 64 57 47 48 50 52 49 46 43 36 31 41 41 44 46 48 45 48 50 51 57 50 36
82 97 87 78 72 69 67 66 85 88 95 96 72 79 79 87 77 74 69 66 67 56 53 49 52 52 57 53 49 44 40 32 39 45 47 49 52 50 56 55 57 62 51 37
86 93 82 77 86 82 89 87 80 74 75 89 65 98 93 88 80 87 78 70 62 57 53 53 54 58 64 62 58 55 51 42 47 50 52 55 56 58 64 61 67 64 56 36
82 91 80 72 71 73 88 90 83 82 66 73 95 99 95 88 89 81 65 57 56 57 60 62 62 61 69 67 67 68 65 59 53 51 60 64 62 68 71 68 73 66 61 39
77 87 91 93 80 75 76 68 71 82 83 74 77 97 92 88 81 75 62 62 62 65 63 67 64 63 65 75 70 71 75 72 63 69 72 71 71 75 76 74 73 72 64 48
67 76 75 96 86 70 79 73 76 66 80 66 81 97 88 87 81 71 67 70 69 71 71 67 64 63 68 78 78 79 77 70 71 69 71 71 79 80 79 78 74 77 70 56
79 84 97 96 77 68 81 75 72 72 68 69 85 86 86 84 74 73 72 73 77 78 78 75 71 68 69 75 86 82 78 74 72 75 79 78 84 85 86 81 78 81 75 64
84 90 83 97 86 78 91 65 58 72 76 84 97 98 87 82 77 76 73 74 81 81 79 79 75 73 73 77 88 89 85 84 80 78 82 87 87 91 89 84 79 83 83 75
86 77 78 71 65 67 69 70 81 74 76 79 89 89 83 81 76 73 72 80 83 86 84 84 80 79 84 84 90 97 93 91 91 90 90 89 91 91 94 89 87 90 87 81
84 77 71 70 65 89 86 83 80 83 83 79 77 72 74 84 86 83 82 86 87 87 89 89 87 85 90 93 94 98 99 97 96 96 97 95 96 97 94 95 93 91 91 87
74 75 72 70 70 81 77 79 82 86 88 75 61 66 78 88 91 92 89 92 93 92 92 91 90 90 94 96 98 97 98 99 98 99 98 97 96 99 97 97 98 95 95 92
63 68 62 66 62 87 91 77 60 67 79 75 63 63 70 83 90 95 97 96 95 95 93 91 90 89 91 92 95 97 98 96 97 99 99 98 99 98 97 95 99 97 94 96
69 66 72 67 81 80 74 60 53 67 88 86 77 69 73 82 88 94 96 95 95 93 95 92 88 84 82 87 93 93 96 97 97 97 98 96 98 98 99 96 98 99 97 99
64 94 71 73 81 88 74 62 68 80 81 77 72 72 68 68 72 77 79 80 82 86 93 93 89 79 77 76 82 88 90 95 96 96 96 97 98 98 96 96 97 98 98 98
73 68 72 66 77 81 82 84 84 81 81 80 77 74 72 69 67 67 71 73 72 75 79 87 87 86 81 72 72 76 81 85 88 91 92 95 97 98 98 95 97 97 95 97
67 63 68 70 76 78 79 82 87 88 87 82 81 80 77 73 71 69 67 67 68 71 73 75 74 74 75 74 74 72 70 71 72 77 80 82 85 88 91 94 96 96 96 97
64 62 69 69 72 76 78 79 81 85 87 85 83 79 77 76 74 72 72 69 65 61 61 63 65 68 69 71 68 67 65 65 65 67 67 68 70 72 76 78 85 87 92 96
65 66 70 73 74 73 76 79 84 83 84 88 87 85 81 77 74 73 73 71 69 69 68 67 66 63 64 64 66 66 65 66 66 66 66 67 68 66 65 65 67 69 70 72